Flight Track Log - Related Links

Times and Time Zones

All times are in EST time to prevent confusion due to time zone crossing. See the N884FT flight status page for this flight to view local times or setup timezone preferences in your user account.

Time Position Orientation Groundspeed Altitude Reporting Facility
EST Latitude Longitude Course Direction KTS MPH feet Rate Location/Type
Tue 09:08:00 PM 27.9833 -82.7167 81° East 103 119 2,200  Level Tampa TRACON
Tue 09:09:01 PM 27.9833 -82.7000 90° East 78 90 2,600 446 Climbing Tampa TRACON
Tue 09:10:01 PM 27.9833 -82.6833 90° East 84 97 3,100 238 Climbing Tampa TRACON
Tue 09:11:07 PM 27.9833 -82.6333 90° East 120 138 3,100  Level Tampa TRACON
Tue 09:11:55 PM 27.9833 -82.6167 90° East 114 131 3,100  Level Tampa TRACON
Tue 09:12:55 PM 27.9833 -82.5667 90° East 113 130 3,100 -48 Level Tampa TRACON
Tue 09:13:00 PM 27.9327 -82.4043 81° East  Level FlightAware Approximate
Tue 09:14:01 PM 27.9667 -82.5333 120° Southeast 117 135 3,000  Level Tampa TRACON
Tue 09:15:01 PM 27.9667 -82.5000 90° East 113 130 3,000  Level Tampa TRACON
Tue 09:16:01 PM 27.9667 -82.4667 90° East 111 128 3,000  Level Tampa TRACON
Tue 09:16:55 PM 27.9667 -82.4333 90° East 119 137 3,000  Level Tampa TRACON
Tue 09:18:01 PM 27.9667 -82.4000 90° East 108 124 3,000 189 Level Tampa TRACON
Tue 09:19:02 PM 27.9667 -82.3667 90° East 97 112 3,400 591 Climbing Tampa TRACON
Tue 09:20:13 PM 27.9667 -82.3333 90° East 84 97 4,300 667 Climbing Tampa TRACON
Tue 09:21:08 PM 27.9667 -82.3167 90° East 92 106 4,800 626 Climbing Tampa TRACON
Tue 09:22:08 PM 27.9667 -82.2833 90° East 97 112 5,500 632 Climbing Tampa TRACON
Tue 09:23:02 PM 27.9667 -82.2500 90° East 104 120 6,000 158 Climbing Tampa TRACON
Tue 09:24:02 PM 27.9667 -82.2167 90° East 80 92 5,800 -200 Descending Tampa TRACON
Tue 09:25:02 PM 27.9667 -82.2000 90° East 84 97 5,600 200 Descending Tampa TRACON
Tue 09:26:02 PM 27.9833 -82.1667 60° Northeast 101 116 6,200 600 Climbing Tampa TRACON
Tue 09:27:02 PM 27.9833 -82.1333 90° East 105 121 6,800 550 Climbing Tampa TRACON
Tue 09:28:02 PM 27.9833 -82.1000 90° East 113 130 7,300 500 Climbing Tampa TRACON
Tue 09:29:02 PM 27.9833 -82.0667 90° East 118 136 7,800 400 Climbing Tampa TRACON
Tue 09:30:47 PM 27.9833 -82.0000 90° East 129 148 8,400 327 Climbing Orlando TRACON
Tue 09:31:47 PM 28.0000 -81.9500 69° East 143 165 8,700 298 Climbing Orlando TRACON
Tue 09:32:48 PM 28.0000 -81.9000 90° East 132 152 9,000 157 Climbing Orlando TRACON
Tue 09:33:42 PM 28.0167 -81.8667 60° Northeast 140 161 9,000  Level Orlando TRACON
Tue 09:34:42 PM 28.0167 -81.8167 90° East 149 171 9,000  Level Orlando TRACON
Tue 09:35:42 PM 28.0167 -81.7833 90° East 159 183 9,000 50 Level Orlando TRACON
Tue 09:36:42 PM 28.0333 -81.7333 69° East 165 190 9,100 -50 Climbing Orlando TRACON
Tue 09:37:42 PM 28.0333 -81.6667 90° East 163 188 8,900 -350 Descending Orlando TRACON
Tue 09:38:42 PM 28.0333 -81.6167 90° East 171 197 8,400 -550 Descending Orlando TRACON
Tue 09:39:42 PM 28.0500 -81.5667 69° East 176 203 7,800 -700 Descending Orlando TRACON
Tue 09:40:42 PM 28.0500 -81.5167 90° East 170 196 7,000 -700 Descending Orlando TRACON
Tue 09:41:42 PM 28.0667 -81.4667 69° East 139 160 6,400 -650 Descending Orlando TRACON
Tue 09:42:42 PM 28.0667 -81.4167 90° East 134 154 5,700 -600 Descending Orlando TRACON
Tue 09:43:42 PM 28.0667 -81.3833 90° East 135 155 5,200 -350 Descending Orlando TRACON
Tue 09:44:42 PM 28.0667 -81.3500 90° East 116 133 5,000 -100 Descending Orlando TRACON
Tue 09:45:42 PM 28.0833 -81.3000 69° East 119 137 5,000 -50 Level Orlando TRACON
Tue 09:46:42 PM 28.0833 -81.2667 90° East 119 137 4,900 -350 Descending Orlando TRACON
Tue 09:47:42 PM 28.0833 -81.2333 90° East 125 144 4,300 -450 Descending Orlando TRACON
Tue 09:48:42 PM 28.0833 -81.2000 90° East 117 135 4,000 -200 Descending Orlando TRACON
Tue 09:49:42 PM 28.0833 -81.1500 90° East 116 133 3,900 -300 Descending Orlando TRACON
Tue 09:50:42 PM 28.0833 -81.1167 90° East 120 138 3,400 -450 Descending Orlando TRACON
Tue 09:51:42 PM 28.0833 -81.0833 90° East 116 133 3,000 -200 Descending Orlando TRACON
Tue 09:52:42 PM 28.0833 -81.0500 90° East 104 120 3,000  Level Orlando TRACON
Tue 09:53:42 PM 28.0833 -81.0167 90° East 116 133 3,000  Level Orlando TRACON
Tue 09:54:42 PM 28.0833 -80.9833 90° East 114 131 3,000 -150 Level Orlando TRACON
Tue 09:55:42 PM 28.0667 -80.9500 120° Southeast 119 137 2,700 -500 Descending Orlando TRACON
Tue 09:56:42 PM 28.0667 -80.9167 90° East 114 131 2,000 -500 Descending Orlando TRACON
Tue 09:57:42 PM 28.0667 -80.8833 90° East 96 110 1,700 -248 Descending Orlando TRACON
Tue 09:58:43 PM 28.0667 -80.8500 90° East 83 96 1,500  Descending Orlando TRACON
Tue 09:59:43 PM 28.0833 -80.8333 41° Northeast 85 98 1,700 -150 Climbing Orlando TRACON
Tue 10:00:43 PM 28.0833 -80.8000 90° East 87 100 1,200 -350 Descending Orlando TRACON
Tue 10:01:43 PM 28.0833 -80.7833 90° East 73 84 1,000 -100 Descending Orlando TRACON
Tue 10:02:43 PM 28.0833 -80.7500 90° East 76 87 1,000 -100 Level Orlando TRACON
Tue 10:03:43 PM 28.1000 -80.7333 41° Northeast 80 92 800 -200 Descending Orlando TRACON
Tue 10:04:43 PM 28.1000 -80.7000 90° East 86 99 600 -150 Descending Orlando TRACON
Tue 10:05:43 PM 28.1000 -80.6833 90° East 67 77 500 -100 Descending Orlando TRACON

Login

Don't have an account? Register now (free) for customized features, flight alerts, and more!